カタログに戻る

QIANFAN-192

運用中通信PO
NORAD 69410·PAYLOAD·🇨🇳 China

打ち上げ Jun 5, 2026 から Wenchang Space Launch Site

Loading…

次のパス (今後24時間)

TLE

最新Source: Space-Track

元期: Sep 14, 2026, 13:18 UTC

1 69410U 26125K   26257.55445766  .00000022  00000-0  14750-4 0  9995
2 69410  88.9888 270.9256 0002030 106.5871 253.5503 13.51030128 14018

AllMySatでQIANFAN-192をリアルタイム追跡

Download on the App Store